Cosmos 1151 - Orbit

View from above orbital plane
View from above orbital plane
View from above satellite
View from above satellite

Ground track
Ground track

The orbit data is extracted from the following two-line orbital elements,

1 11671U 80005A   13170.43870059  .00020671  00000-0  36549-3 0  1388
2 11671 082.4787 343.1651 0004282 211.1810 148.9712 15.50304184831552
Epoch (UTC): 19 June 2013 10:31:43
Eccentricity: 0.0004282
inclination: 82.4787°
perigee height: 413 km
apogee height: 419 km
right ascension of ascending node: 343.1651°
argument of perigee: 211.1810°
revolutions per day: 15.50304184
mean anomaly at epoch: 148.9712°
orbit number at epoch: 83155

The dashed part of the orbit path shows where the satellite is in the earth's shadow,  

Developed and maintained by Chris Peat, Heavens-Above GmbH. Please read the updated FAQ before sending e-mail. Imprint. DLR